Location: Newark
(48.5156°N, 1.8989°W)
Time: 18:31:17
(UTC+00:00)

Transit 4A - Pass Details

Date: 02 December 2019
Orbit: 870 x 975 km, 66.8° (Epoch: 12 December)

Event Time Altitude Azimuth Distance (km) Brightness Sun altitude
Rises 17:10:40 0° 153° (SSE) 3,619 10.9 -9.0°
Reaches altitude 10° 17:14:47 10° 127° (SE) 2,658 10.0 -9.7°
Maximum altitude 17:17:23 13° 102° (ESE) 2,438 9.6 -10.1°
Enters shadow 17:19:05 12° 84° (E) 2,521 9.6 -10.3°
